When you browse on this site, cookies collect data to enhance your experience and personalize the content and advertising you see.
Visit our Privacy Policy to learn more. By continuing to use the site, you agree to this use of cookies and data.
EN

Hourly Weather Meinerzhagen

Today, 6 July, Monday

Time Temperature Precipitation Wind Pressure Humidity
00:00 +12°C° 0 mm 4 mps 720 mmHg 87%
01:00 +11°C° 0 mm 3 mps 720 mmHg 88%
02:00 +10°C° 0 mm 3 mps 720 mmHg 89%
03:00 +10°C° 0 mm 3 mps 720 mmHg 90%
04:00 +10°C° 0 mm 4 mps 720 mmHg 91%
05:00 +10°C° 0.1 mm 4 mps 721 mmHg 88%
06:00 +9°C° 0.1 mm 5 mps 721 mmHg 84%
07:00 +10°C° 0.1 mm 5 mps 721 mmHg 81%
08:00 +10°C° 0.1 mm 5 mps 721 mmHg 77%
09:00 +12°C° 0.1 mm 5 mps 722 mmHg 74%
10:00 +12°C° 0.1 mm 5 mps 722 mmHg 70%
11:00 +13°C° 0.3 mm 6 mps 722 mmHg 71%
12:00 +13°C° 0.3 mm 6 mps 722 mmHg 72%
13:00 +13°C° 0.3 mm 6 mps 722 mmHg 73%
14:00 +14°C° 0.4 mm 6 mps 723 mmHg 69%
15:00 +15°C° 0.4 mm 6 mps 723 mmHg 65%
16:00 +15°C° 0.4 mm 6 mps 723 mmHg 61%
17:00 +15°C° 0.1 mm 5 mps 724 mmHg 62%
18:00 +14°C° 0.1 mm 5 mps 724 mmHg 63%
19:00 +14°C° 0.1 mm 4 mps 724 mmHg 63%
20:00 +12°C° 0 mm 4 mps 725 mmHg 71%
21:00 +11°C° 0 mm 3 mps 725 mmHg 80%
22:00 +9°C° 0 mm 2 mps 726 mmHg 88%
23:00 +9°C° 0 mm 2 mps 726 mmHg 90%

Tomorrow, 7 July, Tuesday

Time Temperature Precipitation Wind Pressure Humidity
00:00 +8°C° 0 mm 2 mps 726 mmHg 92%
01:00 +9°C° 0 mm 1 mps 726 mmHg 94%
02:00 +8°C° 0 mm 1 mps 726 mmHg 94%
03:00 +8°C° 0 mm 1 mps 726 mmHg 94%
04:00 +7°C° 0 mm 1 mps 726 mmHg 95%
05:00 +9°C° 0 mm 1 mps 726 mmHg 91%
06:00 +10°C° 0 mm 1 mps 726 mmHg 87%
07:00 +12°C° 0 mm 1 mps 726 mmHg 83%
08:00 +13°C° 0 mm 1 mps 727 mmHg 73%
09:00 +15°C° 0 mm 2 mps 727 mmHg 62%
10:00 +17°C° 0 mm 2 mps 727 mmHg 51%
11:00 +17°C° 0 mm 3 mps 726 mmHg 51%
12:00 +18°C° 0 mm 3 mps 726 mmHg 52%
13:00 +18°C° 0 mm 4 mps 726 mmHg 52%
14:00 +19°C° 0.1 mm 4 mps 725 mmHg 50%
15:00 +19°C° 0.1 mm 5 mps 725 mmHg 48%
16:00 +20°C° 0.1 mm 5 mps 725 mmHg 46%
17:00 +19°C° 0 mm 4 mps 725 mmHg 51%
18:00 +18°C° 0 mm 3 mps 725 mmHg 56%
19:00 +17°C° 0 mm 2 mps 724 mmHg 61%
20:00 +16°C° 0 mm 2 mps 724 mmHg 65%
21:00 +14°C° 0 mm 1 mps 724 mmHg 68%
22:00 +13°C° 0 mm 1 mps 724 mmHg 71%
23:00 +13°C° 0 mm 1 mps 724 mmHg 72%

Day after tomorrow, 8 July, Wednesday

Time Temperature Precipitation Wind Pressure Humidity
00:00 +13°C° 0 mm 1 mps 724 mmHg 73%
01:00 +13°C° 0 mm 1 mps 723 mmHg 73%
02:00 +13°C° 0 mm 1 mps 723 mmHg 76%
03:00 +13°C° 0 mm 1 mps 723 mmHg 78%
04:00 +12°C° 0 mm 2 mps 723 mmHg 80%
05:00 +12°C° 0.2 mm 2 mps 723 mmHg 82%
06:00 +12°C° 0.2 mm 2 mps 722 mmHg 84%
07:00 +10°C° 0.2 mm 2 mps 722 mmHg 86%
08:00 +10°C° 0.5 mm 2 mps 722 mmHg 89%
09:00 +10°C° 0.5 mm 2 mps 723 mmHg 92%
10:00 +10°C° 0.5 mm 2 mps 723 mmHg 96%
11:00 +11°C° 0.1 mm 3 mps 723 mmHg 94%
12:00 +13°C° 0.1 mm 3 mps 723 mmHg 92%
13:00 +14°C° 0.1 mm 3 mps 724 mmHg 90%
14:00 +14°C° 0.1 mm 3 mps 724 mmHg 88%
15:00 +14°C° 0.1 mm 3 mps 724 mmHg 86%
16:00 +16°C° 0.1 mm 3 mps 724 mmHg 84%
17:00 +16°C° 0.1 mm 3 mps 724 mmHg 85%
18:00 +16°C° 0.1 mm 3 mps 724 mmHg 86%
19:00 +16°C° 0.1 mm 2 mps 724 mmHg 87%
20:00 +15°C° 0.2 mm 2 mps 724 mmHg 90%
21:00 +14°C° 0.2 mm 2 mps 724 mmHg 93%
22:00 +13°C° 0.2 mm 1 mps 725 mmHg 96%
23:00 +13°C° 0 mm 1 mps 725 mmHg 96%

9 July, Thursday

Time Temperature Precipitation Wind Pressure Humidity
00:00 +12°C° 0 mm 1 mps 725 mmHg 96%
01:00 +12°C° 0 mm 1 mps 725 mmHg 97%
02:00 +12°C° 0 mm 1 mps 725 mmHg 97%
03:00 +12°C° 0 mm 1 mps 725 mmHg 97%
04:00 +12°C° 0 mm 1 mps 725 mmHg 97%
05:00 +12°C° 0 mm 1 mps 725 mmHg 96%
06:00 +13°C° 0 mm 1 mps 725 mmHg 95%
07:00 +14°C° 0 mm 1 mps 725 mmHg 94%
08:00 +15°C° 0 mm 2 mps 725 mmHg 89%
09:00 +16°C° 0 mm 2 mps 725 mmHg 83%
10:00 +17°C° 0 mm 2 mps 726 mmHg 78%
11:00 +19°C° 0 mm 2 mps 725 mmHg 71%
12:00 +20°C° 0 mm 2 mps 725 mmHg 64%
13:00 +22°C° 0 mm 3 mps 725 mmHg 57%
14:00 +24°C° 0 mm 3 mps 725 mmHg 54%
15:00 +24°C° 0 mm 3 mps 725 mmHg 51%
16:00 +25°C° 0 mm 3 mps 724 mmHg 48%
17:00 +25°C° 0 mm 2 mps 724 mmHg 54%
18:00 +24°C° 0 mm 2 mps 724 mmHg 60%
19:00 +23°C° 0 mm 2 mps 723 mmHg 66%
20:00 +20°C° 0 mm 2 mps 723 mmHg 72%
21:00 +19°C° 0 mm 2 mps 723 mmHg 79%
22:00 +17°C° 0 mm 2 mps 722 mmHg 85%
23:00 +17°C° 0 mm 2 mps 722 mmHg 87%

10 July, Friday

Time Temperature Precipitation Wind Pressure Humidity
00:00 +16°C° 0 mm 2 mps 721 mmHg 89%
01:00 +16°C° 0 mm 2 mps 721 mmHg 92%
02:00 +15°C° 0 mm 2 mps 721 mmHg 92%
03:00 +15°C° 0 mm 2 mps 720 mmHg 93%
04:00 +15°C° 0 mm 2 mps 720 mmHg 94%
05:00 +16°C° 0.3 mm 2 mps 720 mmHg 93%
06:00 +16°C° 0.3 mm 3 mps 720 mmHg 91%
07:00 +17°C° 0.3 mm 3 mps 720 mmHg 90%
08:00 +17°C° 0.3 mm 3 mps 720 mmHg 90%
09:00 +17°C° 0.3 mm 3 mps 720 mmHg 90%
10:00 +17°C° 0.3 mm 4 mps 720 mmHg 90%
11:00 +17°C° 0.2 mm 4 mps 720 mmHg 88%
12:00 +17°C° 0.2 mm 4 mps 720 mmHg 86%
13:00 +15°C° 0.2 mm 4 mps 720 mmHg 84%
14:00 +17°C° 0 mm 4 mps 720 mmHg 73%
15:00 +17°C° 0 mm 5 mps 721 mmHg 62%
16:00 +19°C° 0 mm 5 mps 721 mmHg 52%
17:00 +17°C° 0 mm 5 mps 721 mmHg 54%
18:00 +16°C° 0 mm 5 mps 722 mmHg 56%
19:00 +15°C° 0 mm 5 mps 722 mmHg 58%
20:00 +13°C° 0 mm 4 mps 722 mmHg 65%
21:00 +11°C° 0 mm 3 mps 723 mmHg 73%
22:00 +9°C° 0 mm 2 mps 723 mmHg 81%
23:00 +9°C° 0 mm 2 mps 724 mmHg 84%

11 July, Saturday

Time Temperature Precipitation Wind Pressure Humidity
00:00 +8°C° 0 mm 2 mps 724 mmHg 88%
01:00 +8°C° 0 mm 1 mps 725 mmHg 91%
02:00 +8°C° 0 mm 1 mps 725 mmHg 92%
03:00 +8°C° 0 mm 1 mps 725 mmHg 92%
04:00 +7°C° 0 mm 1 mps 725 mmHg 92%
05:00 +9°C° 0 mm 1 mps 725 mmHg 87%
06:00 +9°C° 0 mm 2 mps 726 mmHg 82%
07:00 +10°C° 0 mm 2 mps 726 mmHg 76%
08:00 +12°C° 0 mm 2 mps 726 mmHg 74%
09:00 +13°C° 0 mm 2 mps 727 mmHg 71%
10:00 +13°C° 0 mm 2 mps 727 mmHg 68%
11:00 +13°C° 0.2 mm 3 mps 727 mmHg 66%
12:00 +14°C° 0.2 mm 3 mps 727 mmHg 64%
13:00 +16°C° 0.2 mm 3 mps 728 mmHg 63%
14:00 +17°C° 0.6 mm 3 mps 728 mmHg 65%
15:00 +17°C° 0.6 mm 3 mps 728 mmHg 68%
16:00 +17°C° 0.6 mm 3 mps 728 mmHg 71%
17:00 +16°C° 0.4 mm 2 mps 728 mmHg 75%
18:00 +15°C° 0.4 mm 2 mps 728 mmHg 79%
19:00 +15°C° 0.4 mm 2 mps 728 mmHg 82%
20:00 +13°C° 0.1 mm 2 mps 728 mmHg 85%
21:00 +12°C° 0.1 mm 1 mps 729 mmHg 87%
22:00 +10°C° 0.1 mm 1 mps 729 mmHg 90%
23:00 +9°C° 0 mm 1 mps 729 mmHg 91%
Show more